Vancouver, WA
on Tuesday, January 15, 2013

Tuesday
Previous Day Next Day
Daily Summary
 ActualAverageRecord
Temperature
Mean Temperature °F 42°F  
Max Temperature 38°F 48°F 63°F (1958)
Min Temperature 34°F 36°F 5°F (1907)
Degree Days
Heating Degree Days 29    
Month to date heating degree days 435  
Since 1 July heating degree days 1983  
Cooling Degree Days 0    
Month to date cooling degree days 0  
Year to date cooling degree days 0  
Moisture
Dew Point 32°F   
Average Humidity 89    
Maximum Humidity 96    
Minimum Humidity 82    
Precipitation
Precipitation 0.02 in 0.16 in 1.90 in (1974)
Month to date precipitation 1.00 2.89  
Year to date precipitation 1.00 2.89  
Snow
Snow 0.00 in in in ()
Month to date snowfall 0.0  
Snow Depth 0.00 in   
Wind
Wind Speed 2 mph   
Max Wind Speed 7 mph   
Max Gust Speed 10 mph   
Visibility 6 miles   
Events Rain   

Key: T is trace of precipitation, MM is missing value
Source: NWS Daily Summary
Time(PST)TemperatureDew PointHumidity Pressure Visibility Wind DirectionWind SpeedGust SpeedPrecipitationEvents Conditions
12:15 AM 33.8°F 32.0°F 93% 30.59 in 4.0 miles Calm Calm - N/A   Overcast
12:45 AM 33.8°F 32.0°F 93% 30.59 in 2.5 miles Calm Calm - 0.00 in Rain Light Rain
12:53 AM 34.0°F 32.0°F 92% 30.59 in 3.0 miles Calm Calm - 0.00 in   Overcast
1:11 AM 33.8°F 32.0°F 93% 30.59 in 2.0 miles Calm Calm - N/A   Overcast
1:20 AM 33.8°F 32.0°F 93% 30.59 in 2.5 miles Calm Calm - N/A   Overcast
1:27 AM 33.8°F 32.0°F 93% 30.59 in 3.0 miles Calm Calm - N/A   Overcast
1:53 AM 34.0°F 32.0°F 92% 30.60 in 4.0 miles Calm Calm - N/A   Overcast
2:19 AM 33.8°F 32.0°F 93% 30.60 in 2.0 miles Calm Calm - 0.01 in   Overcast
2:43 AM 33.8°F 32.0°F 93% 30.61 in 3.0 miles Calm Calm - 0.01 in   Overcast
2:53 AM 34.0°F 32.0°F 92% 30.62 in 3.0 miles Calm Calm - 0.01 in   Overcast
3:30 AM 33.8°F 33.8°F 100% 30.62 in 2.0 miles Calm Calm - N/A   Overcast
4:17 AM 33.8°F 33.8°F 100% 30.62 in 2.5 miles Calm Calm - 0.01 in Rain Light Rain
4:32 AM 33.8°F 32.0°F 93% 30.62 in 3.0 miles Calm Calm - 0.01 in   Overcast
4:53 AM 34.0°F 32.0°F 92% 30.61 in 4.0 miles Calm Calm - 0.01 in   Overcast
5:53 AM 34.0°F 32.0°F 92% 30.62 in 4.0 miles Calm Calm - N/A   Overcast
6:53 AM 34.0°F 32.0°F 92% 30.63 in 6.0 miles Calm Calm - N/A   Overcast
7:31 AM 33.8°F 32.0°F 93% 30.64 in 6.0 miles Calm Calm - N/A   Overcast
7:53 AM 34.0°F 32.0°F 92% 30.65 in 6.0 miles Calm Calm - N/A   Overcast
8:16 AM 33.8°F 32.0°F 93% 30.65 in 7.0 miles Calm Calm - N/A   Overcast
8:21 AM 35.6°F 32.0°F 87% 30.65 in 6.0 miles Calm Calm - N/A   Overcast
8:53 AM 35.1°F 32.0°F 89% 30.67 in 4.0 miles Calm Calm - N/A   Overcast
9:53 AM 35.1°F 33.1°F 92% 30.68 in 6.0 miles WNW 4.6 mph - N/A   Overcast
10:53 AM 36.0°F 33.1°F 89% 30.68 in 8.0 miles NW 3.5 mph - N/A   Overcast
11:53 AM 36.0°F 33.1°F 89% 30.67 in 8.0 miles NW 5.8 mph - N/A   Overcast
1:53 PM 36.0°F 33.1°F 89% 30.66 in 10.0 miles NW 5.8 mph - N/A   Overcast
2:53 PM 37.9°F 33.1°F 83% 30.66 in 10.0 miles Variable 4.6 mph - N/A   Overcast
3:02 PM 37.4°F 33.8°F 87% 30.66 in 10.0 miles North 3.5 mph - N/A   Overcast
3:53 PM 37.0°F 33.1°F 86% 30.67 in 10.0 miles NNW 4.6 mph - N/A   Overcast
4:17 PM 37.4°F 33.8°F 87% 30.67 in 10.0 miles NW 4.6 mph - N/A   Overcast
4:24 PM 37.4°F 33.8°F 87% 30.67 in 10.0 miles NW 5.8 mph - N/A   Overcast
4:39 PM 37.4°F 33.8°F 87% 30.67 in 10.0 miles NW 4.6 mph - N/A   Overcast
4:53 PM 37.0°F 33.1°F 86% 30.67 in 10.0 miles NNW 4.6 mph - N/A   Overcast
5:53 PM 36.0°F 32.0°F 86% 30.67 in 10.0 miles NW 4.6 mph - N/A   Overcast
6:53 PM 36.0°F 30.9°F 82% 30.67 in 10.0 miles WNW 3.5 mph - N/A   Overcast
7:53 PM 36.0°F 30.9°F 82% 30.67 in 10.0 miles NW 4.6 mph - N/A   Overcast
8:53 PM 36.0°F 30.9°F 82% 30.67 in 10.0 miles Calm Calm - N/A   Overcast
10:53 PM 36.0°F 32.0°F 86% 30.66 in 10.0 miles Calm Calm - N/A   Overcast
11:53 PM 36.0°F 32.0°F 86% 30.66 in 10.0 miles Calm Calm - N/A   Overcast
Moon Phase
Jan. 15 Jan. 18 Jan. 26 Feb. 03 Feb. 10
Sunrise:07:47 AM (PST) Moon Rise:09:39 AM (PST)1/15
Sunset:04:53 PM (PST) Moon Set:10:07 PM (PST)1/15

Copyright © 2014 The Weather Underground, Inc.